Weather History for KLCH - May, 2013

Change the Weather History Date:

Saturday, May 18, 2013

  Actual Average Record
Temperature  
Mean Temperature 80 °F 76 °F  
Max Temperature 86 °F 85 °F 97 °F (1906)
Min Temperature 74 °F 67 °F 53 °F (1945)
Degree Days  
Heating Degree Days 0 0  
Month to date heating degree days 24 0  
Since 1 July heating degree days 1267 1489  
Cooling Degree Days 15 11  
Month to date cooling degree days 89 165  
Year to date cooling degree days 267 373  
Growing Degree Days 30 (Base 50)    
Moisture  
Dew Point 71 °F    
Average Humidity 73    
Maximum Humidity 87    
Minimum Humidity 59    
Precipitation  
Precipitation 0.00 in 0.17 in 4.64 in (1923)
Month to date precipitation 5.70 2.79  
Year to date precipitation 29.36 18.47  
Snow  
Snow 0.00 in 0.00 in 0.00 in ()
Month to date snowfall 0.0 0.0  
Since 1 July snowfall 0.0 0.1  
Snow Depth 0.00 in    
Sea Level Pressure  
Sea Level Pressure 30.00 in    
Wind  
Wind Speed 9 mph (South)    
Max Wind Speed 15 mph    
Max Gust Speed 21 mph    
Visibility 9 miles    
Events      
T = Trace of Precipitation, MM = Missing Value Source: NWS Daily Summary

Daily Weather History Graph

Daily Weather History Graph

Search for Another Location

Airport or City:

Trip Planner

Search our weather history database for the weather conditions in past years. The results will help you decide how hot, cold, wet, or windy it might be!

Date:

Astronomy

May. 18, 2013 Rise Set
Actual Time 6:17 AM CDT 8:01 PM CDT
Civil Twilight 5:50 AM CDT 8:28 PM CDT
Nautical Twilight 5:19 AM CDT 8:59 PM CDT
Astronomical Twilight 4:45 AM CDT 9:33 PM CDT
Moon 1:34 PM CDT (5/18) 1:39 AM CDT (5/18)
Length of Visible Light 14h 37m
Length of Day
13h 44m
First Quarter, 55% of the Moon is Illuminated
May 18
First Quarter
May 24
Full
May 31
Last Quarter
Jun 8
New
Jun 16
First Quarter

Hourly Weather History & Observations

Time (CDT) Temp. Heat Index Dew Point Humidity Pressure Visibility Wind Dir Wind Speed Gust Speed Precip Events Conditions
12:53 AM 75.9 °F - 72.0 °F 87% 29.99 in 10.0 mi South 8.1 mph - N/A   Overcast
1:12 AM 75.2 °F - 71.6 °F 89% 29.96 in 10.0 mi South 8.1 mph - N/A   Overcast
1:53 AM 75.9 °F - 72.0 °F 87% 29.97 in 10.0 mi South 9.2 mph 17.3 mph N/A   Overcast
2:11 AM 75.2 °F - 71.6 °F 89% 29.94 in 10.0 mi South 10.4 mph - N/A   Overcast
2:48 AM 75.2 °F - 71.6 °F 89% 29.94 in 10.0 mi South 10.4 mph - N/A   Overcast
2:53 AM 75.9 °F - 71.1 °F 85% 29.96 in 10.0 mi South 9.2 mph - N/A   Overcast
3:53 AM 75.9 °F - 71.1 °F 85% 29.97 in 10.0 mi South 10.4 mph - N/A   Overcast
4:43 AM 75.2 °F - 71.6 °F 89% 29.95 in 9.0 mi South 5.8 mph - N/A   Overcast
4:53 AM 75.9 °F - 71.1 °F 85% 29.97 in 9.0 mi South 9.2 mph - N/A   Overcast
5:53 AM 75.9 °F - 71.1 °F 85% 29.99 in 9.0 mi SSW 8.1 mph - N/A   Overcast
6:06 AM 75.2 °F - 71.6 °F 89% 29.97 in 9.0 mi South 6.9 mph - N/A   Overcast
6:15 AM 75.2 °F - 71.6 °F 89% 29.97 in 9.0 mi South 6.9 mph - N/A   Overcast
6:53 AM 75.9 °F - 71.1 °F 85% 30.01 in 7.0 mi South 4.6 mph - N/A   Overcast
7:43 AM 75.2 °F - 71.6 °F 89% 30.00 in 7.0 mi SSW 5.8 mph - N/A   Overcast
7:53 AM 75.9 °F - 71.1 °F 85% 30.02 in 8.0 mi SSW 6.9 mph - N/A   Overcast
8:53 AM 77.0 °F - 71.1 °F 82% 30.03 in 9.0 mi SSW 9.2 mph - N/A   Overcast
9:22 AM 78.8 °F - 71.6 °F 78% 30.01 in 10.0 mi SSW 6.9 mph - N/A   Overcast
9:40 AM 78.8 °F - 71.6 °F 78% 30.02 in 10.0 mi North - - N/A   Overcast
9:53 AM 80.1 °F 83.2 °F 70.0 °F 71% 30.04 in 10.0 mi North - - N/A   Mostly Cloudy
10:17 AM 80.6 °F 83.9 °F 69.8 °F 70% 30.02 in 10.0 mi North - - N/A   Partly Cloudy
10:53 AM 81.0 °F 84.4 °F 70.0 °F 69% 30.04 in 10.0 mi North - - N/A   Scattered Clouds
11:53 AM 82.9 °F 87.0 °F 70.0 °F 65% 30.04 in 10.0 mi South 10.4 mph - N/A   Partly Cloudy
12:53 PM 84.9 °F 89.4 °F 70.0 °F 61% 30.04 in 10.0 mi South 11.5 mph 16.1 mph N/A   Clear
1:53 PM 84.2 °F 87.3 °F 68.0 °F 58% 30.00 in 10.0 mi South 11.5 mph 16.1 mph N/A   Clear
2:53 PM 84.9 °F 89.4 °F 70.0 °F 61% 30.01 in 10.0 mi South 12.7 mph 18.4 mph N/A   Clear
3:53 PM 84.9 °F 88.2 °F 68.0 °F 57% 30.00 in 10.0 mi South 10.4 mph - N/A   Clear
4:53 PM 84.0 °F 87.0 °F 68.0 °F 58% 30.00 in 10.0 mi South 11.5 mph - N/A   Clear
5:53 PM 82.9 °F 87.0 °F 70.0 °F 65% 30.00 in 10.0 mi SSE 8.1 mph - N/A   Clear
6:53 PM 81.0 °F 84.9 °F 71.1 °F 72% 29.99 in 10.0 mi South 9.2 mph - N/A   Clear
7:53 PM 78.1 °F - 71.1 °F 79% 30.00 in 10.0 mi South 5.8 mph - N/A   Clear
8:53 PM 75.9 °F - 72.0 °F 87% 30.00 in 10.0 mi South 5.8 mph - N/A   Clear
9:53 PM 75.0 °F - 72.0 °F 90% 29.99 in 8.0 mi SSE 8.1 mph - N/A   Partly Cloudy
10:42 PM 75.2 °F - 71.6 °F 89% 29.97 in 8.0 mi SSE 8.1 mph - N/A   Mostly Cloudy
10:53 PM 75.0 °F - 72.0 °F 90% 29.99 in 8.0 mi SSE 8.1 mph - N/A   Mostly Cloudy
11:53 PM 75.0 °F - 72.0 °F 90% 29.98 in 10.0 mi South 8.1 mph - N/A   Mostly Cloudy